When you browse on this site, cookies collect data to enhance your experience and personalize the content and advertising you see.
Visit our Privacy Policy to learn more. By continuing to use the site, you agree to this use of cookies and data.
  • In Latvia
  • List of Countries
  • For 7 days
  • Water Temperature
  • Satellite Maps
  • Weather Map
  • Weather Widgets
  • user-avatar
    Login

    Hourly Weather Mazatenango

    Today, 19 April, Friday

    Time Temperature Precipitation Wind Pressure Humidity
    00:00 +25°C° 0 mm 0 mps 726 mmHg 78%
    01:00 +25°C° 0 mm 0 mps 726 mmHg 78%
    02:00 +25°C° 0 mm 0 mps 726 mmHg 77%
    03:00 +24°C° 0 mm 0 mps 725 mmHg 76%
    04:00 +24°C° 0 mm 0 mps 725 mmHg 75%
    05:00 +24°C° 0 mm 0 mps 726 mmHg 74%
    06:00 +24°C° 0 mm 0 mps 726 mmHg 74%
    07:00 +28°C° 0 mm 1 mps 726 mmHg 67%
    08:00 +30°C° 0 mm 1 mps 726 mmHg 61%
    09:00 +32°C° 0 mm 2 mps 727 mmHg 55%
    10:00 +34°C° 0.2 mm 2 mps 726 mmHg 55%
    11:00 +34°C° 0.2 mm 2 mps 726 mmHg 54%
    12:00 +35°C° 0.2 mm 2 mps 726 mmHg 54%
    13:00 +34°C° 1.9 mm 2 mps 726 mmHg 57%
    14:00 +34°C° 1.9 mm 2 mps 725 mmHg 60%
    15:00 +32°C° 1.9 mm 2 mps 724 mmHg 63%
    16:00 +31°C° 3 mm 2 mps 724 mmHg 69%
    17:00 +30°C° 3 mm 2 mps 725 mmHg 74%
    18:00 +29°C° 3 mm 2 mps 725 mmHg 80%
    19:00 +28°C° 2.3 mm 1 mps 726 mmHg 81%
    20:00 +28°C° 2.3 mm 1 mps 727 mmHg 82%
    21:00 +27°C° 2.3 mm 1 mps 727 mmHg 83%
    22:00 +27°C° 1.7 mm 1 mps 728 mmHg 82%
    23:00 +27°C° 1.7 mm 1 mps 728 mmHg 82%

    Tomorrow, 20 April, Saturday

    Time Temperature Precipitation Wind Pressure Humidity
    00:00 +27°C° 1.7 mm 1 mps 728 mmHg 82%
    01:00 +27°C° 0.2 mm 1 mps 728 mmHg 79%
    02:00 +27°C° 0.2 mm 1 mps 728 mmHg 77%
    03:00 +26°C° 0.2 mm 1 mps 727 mmHg 74%
    04:00 +26°C° 0 mm 1 mps 727 mmHg 72%
    05:00 +26°C° 0 mm 1 mps 727 mmHg 69%
    06:00 +26°C° 0 mm 1 mps 727 mmHg 66%
    07:00 +28°C° 0 mm 1 mps 728 mmHg 60%
    08:00 +30°C° 0 mm 1 mps 728 mmHg 54%
    09:00 +32°C° 0 mm 2 mps 729 mmHg 49%
    10:00 +34°C° 0 mm 2 mps 729 mmHg 48%
    11:00 +35°C° 0 mm 2 mps 728 mmHg 48%
    12:00 +36°C° 0 mm 3 mps 728 mmHg 47%
    13:00 +35°C° 1.1 mm 3 mps 727 mmHg 52%
    14:00 +35°C° 1.1 mm 3 mps 727 mmHg 56%
    15:00 +34°C° 1.1 mm 3 mps 726 mmHg 61%
    16:00 +31°C° 2 mm 2 mps 726 mmHg 66%
    17:00 +30°C° 2 mm 2 mps 726 mmHg 72%
    18:00 +29°C° 2 mm 2 mps 726 mmHg 78%
    19:00 +28°C° 1.2 mm 2 mps 727 mmHg 76%
    20:00 +27°C° 1.2 mm 1 mps 728 mmHg 75%
    21:00 +27°C° 1.2 mm 1 mps 729 mmHg 73%
    22:00 +26°C° 0 mm 1 mps 729 mmHg 69%
    23:00 +26°C° 0 mm 1 mps 729 mmHg 65%

    Day after tomorrow, 21 April, Sunday

    Time Temperature Precipitation Wind Pressure Humidity
    00:00 +25°C° 0 mm 1 mps 729 mmHg 61%
    01:00 +25°C° 0 mm 2 mps 728 mmHg 58%
    02:00 +25°C° 0 mm 2 mps 728 mmHg 56%
    03:00 +24°C° 0 mm 2 mps 727 mmHg 53%
    04:00 +24°C° 0 mm 2 mps 727 mmHg 51%
    05:00 +24°C° 0 mm 2 mps 727 mmHg 50%
    06:00 +24°C° 0 mm 2 mps 728 mmHg 48%
    07:00 +27°C° 0 mm 1 mps 728 mmHg 45%
    08:00 +29°C° 0 mm 1 mps 729 mmHg 42%
    09:00 +32°C° 0 mm 1 mps 729 mmHg 39%
    10:00 +33°C° 0 mm 1 mps 729 mmHg 39%
    11:00 +35°C° 0 mm 2 mps 729 mmHg 40%
    12:00 +35°C° 0 mm 2 mps 728 mmHg 40%
    13:00 +35°C° 0 mm 2 mps 728 mmHg 44%
    14:00 +35°C° 0 mm 3 mps 727 mmHg 48%
    15:00 +34°C° 0 mm 3 mps 726 mmHg 52%
    16:00 +32°C° 0.3 mm 2 mps 726 mmHg 59%
    17:00 +31°C° 0.3 mm 2 mps 726 mmHg 65%
    18:00 +29°C° 0.3 mm 2 mps 726 mmHg 72%
    19:00 +29°C° 1.3 mm 1 mps 727 mmHg 73%
    20:00 +28°C° 1.3 mm 1 mps 728 mmHg 75%
    21:00 +27°C° 1.3 mm 1 mps 729 mmHg 76%
    22:00 +27°C° 0 mm 1 mps 729 mmHg 74%
    23:00 +27°C° 0 mm 1 mps 729 mmHg 72%

    22 April, Monday

    Time Temperature Precipitation Wind Pressure Humidity
    00:00 +26°C° 0 mm 1 mps 729 mmHg 71%
    01:00 +26°C° 0 mm 1 mps 728 mmHg 69%
    02:00 +26°C° 0 mm 1 mps 727 mmHg 68%
    03:00 +25°C° 0 mm 1 mps 727 mmHg 67%
    04:00 +25°C° 0 mm 1 mps 727 mmHg 67%
    05:00 +25°C° 0 mm 1 mps 727 mmHg 66%
    06:00 +25°C° 0 mm 1 mps 727 mmHg 66%
    07:00 +27°C° 0 mm 1 mps 728 mmHg 59%
    08:00 +30°C° 0 mm 1 mps 728 mmHg 52%
    09:00 +32°C° 0 mm 1 mps 729 mmHg 45%
    10:00 +33°C° 0 mm 1 mps 728 mmHg 43%
    11:00 +35°C° 0 mm 2 mps 728 mmHg 41%
    12:00 +36°C° 0 mm 2 mps 727 mmHg 39%
    13:00 +36°C° 0 mm 2 mps 726 mmHg 41%
    14:00 +35°C° 0 mm 3 mps 726 mmHg 44%
    15:00 +35°C° 0 mm 3 mps 725 mmHg 46%
    16:00 +34°C° 0.1 mm 2 mps 725 mmHg 53%
    17:00 +31°C° 0.1 mm 2 mps 725 mmHg 61%
    18:00 +30°C° 0.1 mm 2 mps 725 mmHg 68%
    19:00 +29°C° 0 mm 1 mps 726 mmHg 70%
    20:00 +28°C° 0 mm 1 mps 727 mmHg 72%
    21:00 +28°C° 0 mm 1 mps 727 mmHg 74%
    22:00 +27°C° 0 mm 1 mps 727 mmHg 74%
    23:00 +27°C° 0 mm 1 mps 727 mmHg 73%

    23 April, Tuesday

    Time Temperature Precipitation Wind Pressure Humidity
    00:00 +27°C° 0 mm 1 mps 727 mmHg 72%
    01:00 +27°C° 0 mm 1 mps 727 mmHg 71%
    02:00 +26°C° 0 mm 1 mps 726 mmHg 70%
    03:00 +26°C° 0 mm 1 mps 726 mmHg 69%
    04:00 +26°C° 0 mm 1 mps 726 mmHg 68%
    05:00 +26°C° 0 mm 1 mps 726 mmHg 66%
    06:00 +26°C° 0 mm 1 mps 727 mmHg 64%
    07:00 +28°C° 0 mm 1 mps 727 mmHg 58%
    08:00 +30°C° 0 mm 1 mps 727 mmHg 52%
    09:00 +33°C° 0 mm 1 mps 728 mmHg 46%
    10:00 +34°C° 0 mm 2 mps 727 mmHg 46%
    11:00 +35°C° 0 mm 2 mps 727 mmHg 45%
    12:00 +36°C° 0 mm 3 mps 726 mmHg 44%
    13:00 +35°C° 0.1 mm 3 mps 726 mmHg 48%
    14:00 +35°C° 0.1 mm 3 mps 725 mmHg 53%
    15:00 +34°C° 0.1 mm 3 mps 724 mmHg 57%
    16:00 +32°C° 0.4 mm 2 mps 724 mmHg 62%
    17:00 +31°C° 0.4 mm 2 mps 725 mmHg 67%
    18:00 +30°C° 0.4 mm 1 mps 725 mmHg 72%
    19:00 +29°C° 0 mm 1 mps 725 mmHg 74%
    20:00 +28°C° 0 mm 1 mps 726 mmHg 76%
    21:00 +26°C° 0 mm 0 mps 727 mmHg 77%
    22:00 +25°C° 0 mm 0 mps 726 mmHg 77%
    23:00 +27°C° 0 mm 1 mps 726 mmHg 77%

    24 April, Wednesday

    Time Temperature Precipitation Wind Pressure Humidity
    00:00 +27°C° 0 mm 1 mps 726 mmHg 76%
    01:00 +27°C° 0 mm 1 mps 726 mmHg 75%
    02:00 +27°C° 0 mm 1 mps 726 mmHg 74%
    03:00 +26°C° 0 mm 1 mps 725 mmHg 73%
    04:00 +26°C° 0 mm 1 mps 725 mmHg 72%
    05:00 +26°C° 0 mm 1 mps 726 mmHg 70%
    06:00 +26°C° 0 mm 1 mps 726 mmHg 69%
    07:00 +28°C° 0 mm 1 mps 726 mmHg 61%
    08:00 +30°C° 0 mm 1 mps 727 mmHg 54%
    09:00 +33°C° 0 mm 1 mps 727 mmHg 46%
    10:00 +33°C° 0 mm 1 mps 727 mmHg 47%
    11:00 +35°C° 0 mm 2 mps 726 mmHg 47%
    12:00 +36°C° 0 mm 3 mps 726 mmHg 47%
    13:00 +34°C° 0.5 mm 2 mps 725 mmHg 54%
    14:00 +32°C° 0.5 mm 2 mps 725 mmHg 61%
    15:00 +30°C° 0.5 mm 2 mps 724 mmHg 68%
    16:00 +30°C° 0.4 mm 1 mps 724 mmHg 72%
    17:00 +29°C° 0.4 mm 1 mps 724 mmHg 75%
    18:00 +28°C° 0.4 mm 1 mps 725 mmHg 79%
    19:00 +26°C° 0.1 mm 0 mps 725 mmHg 80%
    20:00 +25°C° 0.1 mm 0 mps 725 mmHg 81%
    21:00 +25°C° 0.1 mm 0 mps 726 mmHg 83%
    22:00 +25°C° 0 mm 0 mps 726 mmHg 81%
    23:00 +27°C° 0 mm 1 mps 726 mmHg 80%
    Show more